Findlay, OH

11:59 AM EST on February 19, 2017 (GMT -0500)
Findlay

Weather History for KFDY - April, 2013

Change the Weather History Date:

Thursday, April 11, 2013

  Actual Average Record
Temperature  
Mean Temperature 42 °F -  
Max Temperature 43 °F 55 °F 80 °F (1977)
Min Temperature 41 °F 35 °F 24 °F (1975)
Degree Days  
Heating Degree Days 23    
Moisture  
Dew Point 40 °F    
Average Humidity 93    
Maximum Humidity 96    
Minimum Humidity 87    
Precipitation  
Precipitation 1.01 in - - ()
Sea Level Pressure  
Sea Level Pressure 29.77 in    
Wind  
Wind Speed 13 mph (ENE)    
Max Wind Speed 18 mph    
Max Gust Speed 30 mph    
Visibility 6 miles    
Events Rain , Thunderstorm    
Averages and records for this station are not official NWS values.
T = Trace of Precipitation, MM = Missing Value Source: NWS Daily Summary

Daily Weather History Graph

Daily Weather History Graph

Search for Another Location

Airport or City:

Trip Planner

Search our weather history database for the weather conditions in past years. The results will help you decide how hot, cold, wet, or windy it might be!

Date:

Astronomy

Apr. 11, 2013 Rise Set
Actual Time 7:01 AM EDT 8:10 PM EDT
Civil Twilight 6:33 AM EDT 8:38 PM EDT
Nautical Twilight 5:59 AM EDT 9:12 PM EDT
Astronomical Twilight 5:24 AM EDT 9:48 PM EDT
Moon 7:31 AM EDT (4/11) 9:44 PM EDT (4/11)
Length of Visible Light 14h 05m
Length of Day
13h 09m
New Moon, 2% of the Moon is Illuminated
Apr 11
New Moon
Apr 18
First Quarter
Apr 25
Full
May 2
Last Quarter
May 9
New

Hourly Weather History & Observations

Time (EDT) Temp. Windchill Dew Point Humidity Pressure Visibility Wind Dir Wind Speed Gust Speed Precip Events Conditions
12:53 AM 43.0 °F 35.4 °F 41.0 °F 93% 29.85 in 7.0 mi ENE 16.1 mph - 0.03 in Rain Light Rain
1:53 AM 42.1 °F 35.2 °F 41.0 °F 96% 29.83 in 10.0 mi ENE 12.7 mph - 0.02 in   Overcast
2:06 AM 42.8 °F 36.2 °F 39.2 °F 87% 29.83 in 10.0 mi ENE 12.7 mph - N/A Thunderstorm Overcast
2:51 AM 42.8 °F 35.4 °F 39.2 °F 87% 29.81 in 8.0 mi NE 15.0 mph - 0.07 in Rain Light Rain
2:53 AM 42.1 °F 34.5 °F 39.9 °F 92% 29.80 in 8.0 mi ENE 15.0 mph - 0.07 in Rain Light Rain
3:53 AM 41.0 °F 32.8 °F 39.0 °F 93% 29.80 in 10.0 mi NE 16.1 mph 24.2 mph 0.00 in   Overcast
4:53 AM 41.0 °F 33.5 °F 39.9 °F 96% 29.80 in 8.0 mi ENE 13.8 mph - N/A   Overcast
5:44 AM 41.0 °F 34.3 °F 39.2 °F 93% 29.91 in 2.5 mi NNW 11.5 mph - 0.21 in Rain Heavy Rain
5:53 AM 41.0 °F 34.3 °F 39.0 °F 93% 29.91 in 2.5 mi NNW 11.5 mph - 0.29 in Rain Heavy Rain
6:07 AM 41.0 °F 33.5 °F 39.2 °F 93% 29.86 in 5.0 mi NE 13.8 mph - 0.03 in Rain Light Rain
6:13 AM 41.0 °F 32.8 °F 39.2 °F 93% 29.85 in 6.0 mi NE 16.1 mph - 0.04 in Rain Light Rain
6:53 AM 41.0 °F 32.8 °F 39.0 °F 93% 29.81 in 7.0 mi ENE 16.1 mph - 0.07 in Rain Light Rain
7:53 AM 41.0 °F 35.2 °F 39.9 °F 96% 29.83 in 6.0 mi East 9.2 mph 29.9 mph 0.05 in Rain Light Rain
8:03 AM 41.0 °F 35.2 °F 39.2 °F 93% 29.84 in 7.0 mi East 9.2 mph - 0.00 in Rain Light Rain
8:29 AM 41.0 °F 34.7 °F 39.2 °F 93% 29.82 in 4.0 mi East 10.4 mph - 0.05 in Rain Rain
8:53 AM 42.1 °F 36.1 °F 39.9 °F 92% 29.80 in 4.0 mi East 10.4 mph - 0.10 in Rain Light Rain
9:18 AM 42.8 °F 36.2 °F 41.0 °F 93% 29.78 in 9.0 mi East 12.7 mph 18.4 mph 0.01 in   Overcast
9:27 AM 42.8 °F 38.0 °F 41.0 °F 93% 29.79 in 9.0 mi East 8.1 mph - 0.01 in   Overcast
9:53 AM 42.1 °F 37.1 °F 39.9 °F 92% 29.81 in 10.0 mi NNE 8.1 mph - 0.01 in   Overcast
10:53 AM 41.0 °F 32.2 °F 39.9 °F 96% 29.77 in 9.0 mi NE 18.4 mph 24.2 mph N/A   Overcast
11:53 AM 43.0 °F 36.0 °F 41.0 °F 93% 29.79 in 10.0 mi NE 13.8 mph - N/A   Overcast
1:53 PM 43.0 °F 36.0 °F 41.0 °F 93% 29.79 in 6.0 mi ENE 13.8 mph - N/A   Overcast
2:53 PM 42.1 °F 35.2 °F 39.9 °F 92% 29.77 in 3.0 mi ENE 12.7 mph - N/A   Overcast
3:03 PM 42.8 °F 35.8 °F 39.2 °F 87% 29.76 in 2.0 mi ENE 13.8 mph - N/A   Overcast
3:31 PM 42.8 °F 36.2 °F 39.2 °F 87% 29.76 in 1.8 mi ENE 12.7 mph - N/A   Overcast
3:53 PM 42.1 °F 34.9 °F 39.9 °F 92% 29.75 in 1.5 mi ENE 13.8 mph - 0.01 in Rain Light Rain
4:15 PM 41.0 °F 33.5 °F 39.2 °F 93% 29.73 in 2.5 mi ENE 13.8 mph - 0.01 in Rain Light Rain
4:35 PM 41.0 °F 34.3 °F 39.2 °F 93% 29.72 in 3.0 mi NE 11.5 mph - 0.02 in Rain Light Rain
4:53 PM 41.0 °F 33.1 °F 39.9 °F 96% 29.71 in 4.0 mi ENE 15.0 mph - 0.02 in Rain Light Rain
5:29 PM 41.0 °F 34.7 °F 39.2 °F 93% 29.71 in 7.0 mi ENE 10.4 mph - 0.01 in Rain Light Rain
5:53 PM 41.0 °F 34.3 °F 39.0 °F 93% 29.70 in 6.0 mi NE 11.5 mph - 0.01 in Rain Light Rain
6:53 PM 41.0 °F 34.3 °F 39.9 °F 96% 29.68 in 3.0 mi NE 11.5 mph - 0.02 in Rain Light Rain
7:53 PM 41.0 °F 34.7 °F 39.0 °F 93% 29.65 in 3.0 mi ENE 10.4 mph - 0.08 in Rain Rain
8:51 PM 41.0 °F 36.4 °F 39.2 °F 93% 29.64 in 5.0 mi NE 6.9 mph - 0.09 in Rain Rain
8:53 PM 41.0 °F 35.8 °F 39.9 °F 96% 29.65 in 5.0 mi NE 8.1 mph - 0.09 in Rain Rain
9:53 PM 42.1 °F 36.6 °F 39.9 °F 92% 29.63 in 6.0 mi ENE 9.2 mph - 0.10 in Rain Light Rain
10:53 PM 41.0 °F 33.1 °F 39.9 °F 96% 29.57 in 8.0 mi ENE 15.0 mph - 0.04 in Rain Light Rain
11:53 PM 42.1 °F 35.2 °F 41.0 °F 96% 29.59 in 8.0 mi West 12.7 mph - 0.00 in Rain Light Rain